Regional Weather Roundup
Issued by NWS Huntsville, AL

Home | Current Version | Previous Version | Text Only | Print | Product List | Glossary On
Versions: 1 2 3 4 5 6 7 8 9 10 11 12 13 14 15 16 17 18 19 20 21 22 23 24 25 26 27
000
ASUS44 KHUN 270210
RWRHUN

WEATHER ROUNDUP FOR THE TENNESSEE VALLEY
NATIONAL WEATHER SERVICE HUNTSVILLE AL
900 PM CDT TUE JUL 26 2016

ALZ001>004-270300-
NORTHWEST ALABAMA

CITY           SKY/WX    TMP DP  RH WIND       PRES   REMARKS
COURTLAND HCN    N/A     84 N/A N/A S3          N/A
RUSSELLVILLE     N/A     79 N/A N/A MISG        N/A
SHOALS AIRPORT CLEAR     82  72  71 CALM      29.98R
SHOALS TVA RES   N/A     82 N/A N/A MISG        N/A
$$

ALZ005>007-016-270300-
NORTH CENTRAL ALABAMA

CITY           SKY/WX    TMP DP  RH WIND       PRES   REMARKS
CULLMAN AG STN   N/A     84 N/A N/A CALM        N/A
DECATUR AP     CLEAR     81  74  79 CALM      29.98R
HUNTSVILLE AP  PTCLDY    87  68  52 SE5       29.97R HX  90
HUN NWS/UAH      N/A     87  65  46 S2          N/A
MERIDIANVILLE  CLEAR     82  61  47 CALM      29.98S
REDSTONE ARSN  CLEAR     85  69  58 S2        29.97R
VINEMONT AP    FAIR      84  69  60 S7        30.02R
$$

ALZ008>010-270300-
NORTHEAST ALABAMA

CITY           SKY/WX    TMP DP  RH WIND       PRES   REMARKS
ALBERTVILLE    CLEAR     82  73  74 S6        30.00R
FORT PAYNE     CLEAR     77  70  78 CALM      30.00R
SCOTTSBORO AP  CLEAR     84  72  65 CALM      29.99R
SCOTTSBORO HCN   N/A     82 N/A N/A MISG        N/A
VALLEY HEAD      N/A     79 N/A N/A MISG        N/A
$$

TNZ076-096-097-270300-
SOUTHEASTERN MIDDLE TENNESSEE

CITY           SKY/WX    TMP DP  RH WIND       PRES   REMARKS
TULLAHOMA      PTCLDY    82  70  65 E3        30.03S
WINCHESTER     MOCLDY    82  73  74 N3        30.02R
$$

...SURROUNDING SITES...

CITY           SKY/WX    TMP DP  RH WIND       PRES   REMARKS
ATLANTA        PTCLDY    85  70  60 SW10      30.03R
ANNISTON       MOCLDY    84  71  65 W5        30.01R
BIRMINGHAM     PTCLDY    84  74  71 SE7       30.02R HX  91
CHATTANOOGA    PTCLDY    86  69  56 NE3       29.99R HX  90
DALTON         CLEAR     81  70  69 CALM      30.00R
GADSDEN        CLEAR     84  73  69 SW5         N/A  HX  90
GOLDEN TRNGL   CLEAR     82  70  65 SE12      29.95R
HALEYVILLE     FAIR      82  71  69 SW5       30.02R
JACKSON TN     CLOUDY    77  75  93 E6        29.98R
MEMPHIS        PTCLDY    84  74  71 N5        29.96R HX  91
NASHVILLE      CLOUDY    84  74  71 SW5       30.01R HX  91
OXFORD MS      FAIR      81  73  78 CALM      29.98R
ROME           CLEAR     83  68  60 CALM      29.98R
SAVANNAH       MOCLDY    81  73  78 W5        29.98R
TUPELO         CLEAR     87  68  52 CALM      29.95R HX  90
TUSCALOOSA     PTCLDY    82  75  79 S9G16     29.97R
$$

...GULF COAST WEATHER...

CITY           SKY/WX    TMP DP  RH WIND       PRES   REMARKS
GULFPORT       PTCLDY    77  75  93 CALM      29.95R
PASCAGOULA     CLOUDY    77  77 100 SW3       29.97R
MOBILE         PTCLDY    77  75  93 S7        29.99R
GULF SHORES    RAIN      79  76  91 SW10G16   29.99R
PENSACOLA      CLOUDY    81  72  74 SW13G25   30.00R
DESTIN         CLEAR     85  77  77 SW7       30.02R HX  95
PANAMA CITY    LGT RAIN  81  75  83 W16       30.05R
APPALACHICOLA  PTCLDY    80  79  96 CALM      30.05R
$$





USA.gov is the U.S. government's official web portal to all federal, state and local government web resources and services.